Hourly Data Report for October 02, 2017

All times are specified in Local Standard Time (LST). Add 1 hour to adjust for Daylight Saving Time where and when it is observed.

LAC LA MARTRE
NORTHWEST TERRITORIES

63°08'01.070" N
117°14'41.050" W
271.30 m
2202678
71163
WMT

Download Data

Hourly Data (October 2017)
Hourly Data Report for October 2, 2017
Temp Definition
°C
Dew Point Temp Definition
°C
Rel Hum Definition
%
Wind Dir Definition
10's deg

Wind Spd Definition
km/h
Visibility Definition
km
Stn Press Definition
kPa
Hmdx Definition


Wind Chill Definition


Weather Definition


TIME
00:00 4.4 0.2 74 29 15   99.37     LegendNANA
01:00 3.6 0.3 79 27 17   99.37     LegendNANA
02:00 1.0 -0.7 89 25 11   99.36     LegendNANA
03:00 1.4 -0.1 90 25 12   99.37     LegendNANA
04:00 0.8 -0.6 90 23 10   99.37     LegendNANA
05:00 1.8 -0.2 87 24 12   99.39     LegendNANA
06:00 1.5 -0.3 88 24 10   99.39     LegendNANA
07:00 0.7 -0.8 90 25 6   99.37     LegendNANA
08:00 3.6 0.7 81 24 11   99.32     LegendNANA
09:00 5.0 1.2 77 26 11   99.30     LegendNANA
10:00 5.6 0.8 71 27 12   99.28     LegendNANA
11:00 7.3 -0.3 58 26 12   99.23     LegendNANA
12:00 8.5 -0.4 54 27 14   99.18     LegendNANA
13:00 9.7 0.6 53 27 15   99.13     LegendNANA
14:00 10.4 -0.2 48 28 12   99.06     LegendNANA
15:00 10.8 -0.9 44 28 10   98.99     LegendNANA
16:00 10.5 -0.1 48 26 6   98.91     LegendNANA
17:00 9.9 -1.5 45 23 11   98.84     LegendNANA
18:00 8.2 -0.4 55 20 6   98.76     LegendNANA
19:00 6.7 -0.9 58 18 8   98.64     LegendNANA
20:00 5.8 -1.1 61 13 7   98.54     LegendNANA
21:00 4.2 -0.4 72 13 7   98.49     LegendNANA
22:00 3.8 -0.4 74 13 9   98.35     LegendNANA
23:00 3.2 -0.5 77 11 9   98.23     LegendNANA

Notes on Data Quality.

Legend

  • E = Estimated
  • M = Missing
  • NA = Not Available
  • ‡ = Partner data that is not subject to review by the National Climate Archives
Date modified: